DNO575 LGAV-LGIO

Flight info

Callsign DNO575
Flight time 0h 45m
Altitude 24000
Route KOR L53 GARTA L611 IBTIN
Aircraft A320/M-SDE3FGHIRWY/LB1

Departure

Time 2026-05-06 16:58
Airport Athens Eleftherios Venizelos International Airport (LGAV)

Arrival

Time 2026-05-06 17:44
Airport Ioannina King Pyrrhus National Airport (LGIO)
Time Latitude Longitude Altitude Speed Heading
2026-05-06 16:08 37.94030 23.95297 303 ft 0 kts 39°
2026-05-06 16:42 37.94020 23.95287 300 ft 4 kts 39°
2026-05-06 16:42 37.93999 23.95266 302 ft 3 kts 39°
2026-05-06 16:43 37.93983 23.95248 301 ft 4 kts 48°
2026-05-06 16:43 37.93971 23.95223 300 ft 4 kts 102°
2026-05-06 16:43 37.93974 23.95211 303 ft 0 kts 127°
2026-05-06 16:45 37.93966 23.95226 301 ft 9 kts 127°
2026-05-06 16:45 37.93895 23.95345 299 ft 20 kts 127°
2026-05-06 16:46 37.93857 23.95475 297 ft 12 kts 54°
2026-05-06 16:46 37.93929 23.95546 299 ft 17 kts 37°
2026-05-06 16:46 37.94038 23.95648 297 ft 19 kts 34°
2026-05-06 16:46 37.94140 23.95741 299 ft 17 kts 39°
2026-05-06 16:47 37.94228 23.95830 299 ft 15 kts 36°
2026-05-06 16:47 37.94336 23.95933 300 ft 22 kts 37°
2026-05-06 16:47 37.94452 23.96044 301 ft 20 kts 37°
2026-05-06 16:47 37.94563 23.96147 299 ft 21 kts 34°
2026-05-06 16:48 37.94672 23.96248 301 ft 18 kts 37°
2026-05-06 16:48 37.94768 23.96340 300 ft 16 kts 37°
2026-05-06 16:48 37.94852 23.96420 301 ft 14 kts 37°
2026-05-06 16:48 37.94937 23.96502 302 ft 18 kts 37°
2026-05-06 16:49 37.95045 23.96605 303 ft 19 kts 36°
2026-05-06 16:49 37.95146 23.96699 303 ft 17 kts 36°
2026-05-06 16:49 37.95236 23.96783 303 ft 15 kts 36°
2026-05-06 16:49 37.95317 23.96859 305 ft 15 kts 36°
2026-05-06 16:50 37.95393 23.96937 304 ft 11 kts 64°
2026-05-06 16:50 37.95378 23.96995 304 ft 5 kts 127°
2026-05-06 16:50 37.95364 23.97011 304 ft 1 kts 148°
2026-05-06 16:50 37.95354 23.97014 305 ft 0 kts 164°
2026-05-06 16:51 37.95341 23.97018 305 ft 7 kts 166°
2026-05-06 16:52 37.95286 23.97029 309 ft 7 kts 172°
2026-05-06 16:52 37.95241 23.97037 310 ft 10 kts 172°
2026-05-06 16:52 37.95174 23.97006 310 ft 9 kts 215°
2026-05-06 16:52 37.95163 23.96996 310 ft 0 kts 216°
2026-05-06 16:57 37.95160 23.96993 310 ft 4 kts 216°
2026-05-06 16:58 37.94992 23.96833 309 ft 66 kts 218°
2026-05-06 16:58 37.94444 23.96312 295 ft 128 kts 217°
2026-05-06 16:58 37.93607 23.95495 354 ft 169 kts 219°
2026-05-06 16:58 37.92650 23.94590 928 ft 175 kts 217°
2026-05-06 16:59 37.91618 23.93748 1613 ft 178 kts 209°
2026-05-06 16:59 37.90506 23.93013 2202 ft 186 kts 206°
2026-05-06 16:59 37.89275 23.92251 2515 ft 209 kts 206°
2026-05-06 16:59 37.87892 23.91385 2899 ft 233 kts 207°
2026-05-06 17:00 37.86407 23.90432 3584 ft 244 kts 208°
2026-05-06 17:00 37.84882 23.89432 4420 ft 249 kts 209°
2026-05-06 17:00 37.83335 23.88400 5297 ft 253 kts 210°
2026-05-06 17:00 37.81771 23.87345 6166 ft 257 kts 210°
2026-05-06 17:01 37.80185 23.86271 7008 ft 260 kts 210°
2026-05-06 17:01 37.78578 23.85174 7835 ft 264 kts 210°
2026-05-06 17:01 37.76949 23.84057 8645 ft 268 kts 210°
2026-05-06 17:01 37.75300 23.82925 9483 ft 272 kts 210°
2026-05-06 17:02 37.73620 23.81782 10266 ft 277 kts 210°
2026-05-06 17:02 37.72025 23.80304 10602 ft 296 kts 231°
2026-05-06 17:02 37.71020 23.77968 10839 ft 315 kts 258°
2026-05-06 17:02 37.70996 23.75143 11065 ft 334 kts 285°
2026-05-06 17:03 37.71732 23.72280 11420 ft 349 kts 290°
2026-05-06 17:03 37.72565 23.69378 12084 ft 354 kts 291°
2026-05-06 17:03 37.73425 23.66447 12799 ft 358 kts 291°
2026-05-06 17:03 37.74294 23.63483 13523 ft 362 kts 291°
2026-05-06 17:04 37.75165 23.60484 14185 ft 365 kts 291°
2026-05-06 17:04 37.76034 23.57456 14833 ft 368 kts 291°
2026-05-06 17:04 37.76902 23.54407 15499 ft 370 kts 291°
2026-05-06 17:04 37.77772 23.51339 16164 ft 372 kts 291°
2026-05-06 17:05 37.78646 23.48253 16809 ft 374 kts 291°
2026-05-06 17:05 37.79519 23.45153 17463 ft 376 kts 291°
2026-05-06 17:05 37.80397 23.42031 18085 ft 378 kts 291°
2026-05-06 17:05 37.81278 23.38894 18646 ft 380 kts 291°
2026-05-06 17:06 37.82164 23.35739 19159 ft 382 kts 291°
2026-05-06 17:06 37.83035 23.32550 19663 ft 385 kts 290°
2026-05-06 17:06 37.83882 23.29319 20156 ft 388 kts 290°
2026-05-06 17:06 37.84716 23.26064 20649 ft 391 kts 289°
2026-05-06 17:07 37.85553 23.22782 21136 ft 393 kts 289°
2026-05-06 17:07 37.86396 23.19476 21603 ft 396 kts 289°
2026-05-06 17:07 37.87248 23.16150 22071 ft 399 kts 290°
2026-05-06 17:07 37.88108 23.12805 22535 ft 401 kts 290°
2026-05-06 17:08 37.88976 23.09437 22981 ft 404 kts 289°
2026-05-06 17:08 37.89852 23.06043 23411 ft 407 kts 289°
2026-05-06 17:08 37.90732 23.02623 23801 ft 410 kts 289°
2026-05-06 17:08 37.91617 22.99178 24015 ft 411 kts 289°
2026-05-06 17:09 37.92204 22.96888 24058 ft 416 kts 290°
2026-05-06 17:09 37.93312 22.93469 24074 ft 423 kts 298°
2026-05-06 17:09 37.94857 22.90300 24071 ft 424 kts 306°
2026-05-06 17:09 37.96559 22.87244 24076 ft 425 kts 305°
2026-05-06 17:10 37.98255 22.84180 24069 ft 424 kts 305°
2026-05-06 17:10 38.00491 22.80111 24071 ft 425 kts 305°
2026-05-06 17:10 38.01626 22.78037 24066 ft 425 kts 305°
2026-05-06 17:10 38.03856 22.73960 24069 ft 425 kts 305°
2026-05-06 17:11 38.04997 22.71878 24071 ft 425 kts 305°
2026-05-06 17:11 38.06687 22.68798 24076 ft 425 kts 305°
2026-05-06 17:11 38.08375 22.65718 24075 ft 425 kts 305°
2026-05-06 17:11 38.10061 22.62637 24072 ft 425 kts 305°
2026-05-06 17:12 38.11743 22.59554 24071 ft 425 kts 305°
2026-05-06 17:12 38.13426 22.56469 24072 ft 425 kts 305°
2026-05-06 17:12 38.15088 22.53429 24072 ft 425 kts 305°
2026-05-06 17:12 38.16774 22.50349 24068 ft 425 kts 305°
2026-05-06 17:13 38.18459 22.47266 24066 ft 425 kts 305°
2026-05-06 17:13 38.20141 22.44180 24066 ft 425 kts 304°
2026-05-06 17:13 38.21822 22.41091 24064 ft 425 kts 304°
2026-05-06 17:13 38.23499 22.37999 24063 ft 425 kts 304°
2026-05-06 17:14 38.25176 22.34905 24060 ft 425 kts 304°
2026-05-06 17:14 38.26855 22.31805 24071 ft 425 kts 304°
2026-05-06 17:14 38.28533 22.28706 24071 ft 425 kts 304°
2026-05-06 17:14 38.30212 22.25601 24077 ft 425 kts 304°
2026-05-06 17:15 38.31890 22.22500 24083 ft 425 kts 304°
2026-05-06 17:15 38.33567 22.19399 24085 ft 425 kts 304°
2026-05-06 17:15 38.35239 22.16303 24086 ft 425 kts 304°
2026-05-06 17:15 38.36912 22.13203 24086 ft 424 kts 304°
2026-05-06 17:16 38.38584 22.10103 24084 ft 424 kts 304°
2026-05-06 17:16 38.40255 22.07000 24084 ft 425 kts 304°
2026-05-06 17:16 38.41927 22.03891 24079 ft 425 kts 304°
2026-05-06 17:16 38.43598 22.00781 24082 ft 425 kts 304°
2026-05-06 17:17 38.45270 21.97667 24084 ft 425 kts 304°
2026-05-06 17:17 38.46940 21.94556 24084 ft 425 kts 304°
2026-05-06 17:17 38.48611 21.91436 24087 ft 426 kts 304°
2026-05-06 17:17 38.50277 21.88316 24088 ft 426 kts 304°
2026-05-06 17:18 38.51942 21.85192 24079 ft 425 kts 304°
2026-05-06 17:18 38.53608 21.82073 24092 ft 425 kts 304°
2026-05-06 17:18 38.55272 21.78954 24077 ft 425 kts 304°
2026-05-06 17:18 38.56936 21.75827 24075 ft 426 kts 303°
2026-05-06 17:19 38.58603 21.72696 24080 ft 426 kts 304°
2026-05-06 17:19 38.60272 21.69563 24079 ft 427 kts 303°
2026-05-06 17:19 38.61944 21.66423 24080 ft 427 kts 303°
2026-05-06 17:19 38.63589 21.63322 24078 ft 427 kts 303°
2026-05-06 17:20 38.65254 21.60174 24079 ft 427 kts 303°
2026-05-06 17:20 38.66919 21.57025 24087 ft 428 kts 303°
2026-05-06 17:20 38.68585 21.53870 24090 ft 428 kts 303°
2026-05-06 17:20 38.70252 21.50713 24088 ft 428 kts 303°
2026-05-06 17:21 38.71924 21.47557 24088 ft 428 kts 303°
2026-05-06 17:21 38.73595 21.44404 24088 ft 428 kts 303°
2026-05-06 17:21 38.75257 21.41261 23738 ft 423 kts 303°
2026-05-06 17:21 38.76896 21.38152 22997 ft 419 kts 303°
2026-05-06 17:22 38.78516 21.35070 22286 ft 415 kts 303°
2026-05-06 17:22 38.80123 21.32011 21622 ft 412 kts 304°
2026-05-06 17:22 38.81716 21.28979 20985 ft 408 kts 304°
2026-05-06 17:22 38.83293 21.25975 20368 ft 405 kts 304°
2026-05-06 17:23 38.84856 21.22991 19750 ft 401 kts 303°
2026-05-06 17:23 38.86402 21.20032 19155 ft 398 kts 304°
2026-05-06 17:23 38.87938 21.17092 18584 ft 395 kts 304°
2026-05-06 17:23 38.89442 21.14211 18319 ft 383 kts 304°
2026-05-06 17:24 38.90899 21.11421 17462 ft 373 kts 303°
2026-05-06 17:24 38.92333 21.08673 16448 ft 368 kts 303°
2026-05-06 17:24 38.93763 21.05936 15913 ft 364 kts 303°
2026-05-06 17:24 38.95125 21.03335 15771 ft 338 kts 303°
2026-05-06 17:25 38.96475 21.00998 15645 ft 315 kts 311°
2026-05-06 17:25 38.98019 20.99082 15260 ft 305 kts 320°
2026-05-06 17:25 38.99762 20.97564 14721 ft 302 kts 329°
2026-05-06 17:25 39.01668 20.96461 14151 ft 301 kts 339°
2026-05-06 17:26 39.03688 20.95776 13542 ft 300 kts 348°
2026-05-06 17:26 39.05741 20.95367 12903 ft 298 kts 349°
2026-05-06 17:26 39.07778 20.94957 12292 ft 295 kts 348°
2026-05-06 17:26 39.09807 20.94542 11932 ft 294 kts 348°
2026-05-06 17:27 39.11820 20.94128 11616 ft 292 kts 348°
2026-05-06 17:27 39.13802 20.93720 11475 ft 283 kts 348°
2026-05-06 17:27 39.15716 20.93326 11373 ft 274 kts 348°
2026-05-06 17:27 39.17573 20.92945 11248 ft 268 kts 348°
2026-05-06 17:28 39.19380 20.92575 11120 ft 266 kts 348°
2026-05-06 17:28 39.21206 20.92200 11010 ft 265 kts 348°
2026-05-06 17:28 39.23025 20.91823 10882 ft 265 kts 348°
2026-05-06 17:28 39.24845 20.91447 10768 ft 264 kts 348°
2026-05-06 17:29 39.26661 20.91074 10647 ft 264 kts 348°
2026-05-06 17:29 39.28473 20.90700 10525 ft 264 kts 348°
2026-05-06 17:29 39.30284 20.90326 10411 ft 263 kts 348°
2026-05-06 17:29 39.32091 20.89945 10291 ft 262 kts 345°
2026-05-06 17:30 39.33741 20.89056 10184 ft 256 kts 321°
2026-05-06 17:30 39.34899 20.87358 10104 ft 252 kts 295°
2026-05-06 17:30 39.35370 20.85204 10102 ft 251 kts 272°
2026-05-06 17:30 39.35083 20.82982 10091 ft 255 kts 248°
2026-05-06 17:31 39.34061 20.81112 10018 ft 259 kts 223°
2026-05-06 17:31 39.32475 20.79991 9944 ft 265 kts 197°
2026-05-06 17:31 39.30625 20.79882 9921 ft 271 kts 175°
2026-05-06 17:31 39.28755 20.80214 9921 ft 272 kts 174°
2026-05-06 17:32 39.26882 20.80595 9927 ft 272 kts 173°
2026-05-06 17:32 39.25012 20.80989 9922 ft 273 kts 173°
2026-05-06 17:32 39.23153 20.81495 9919 ft 275 kts 159°
2026-05-06 17:32 39.21655 20.83006 9912 ft 280 kts 124°
2026-05-06 17:33 39.21030 20.85356 9803 ft 280 kts 90°
2026-05-06 17:33 39.21361 20.87798 9673 ft 277 kts 64°
2026-05-06 17:33 39.22404 20.89799 9547 ft 271 kts 39°
2026-05-06 17:33 39.24009 20.91037 9415 ft 263 kts 13°
2026-05-06 17:34 39.25747 20.91234 9270 ft 251 kts 351°
2026-05-06 17:34 39.27476 20.90944 9113 ft 250 kts 349°
2026-05-06 17:34 39.29193 20.90600 8961 ft 250 kts 348°
2026-05-06 17:34 39.30907 20.90240 8808 ft 249 kts 348°
2026-05-06 17:35 39.32616 20.89880 8657 ft 249 kts 348°
2026-05-06 17:35 39.34320 20.89515 8492 ft 248 kts 348°
2026-05-06 17:35 39.36015 20.89151 8350 ft 247 kts 348°
2026-05-06 17:36 39.39399 20.88420 8052 ft 246 kts 348°
2026-05-06 17:36 39.41091 20.88058 7904 ft 247 kts 348°
2026-05-06 17:36 39.42781 20.87697 7752 ft 246 kts 349°
2026-05-06 17:36 39.44470 20.87369 7648 ft 246 kts 355°
2026-05-06 17:37 39.46105 20.87901 7607 ft 249 kts 32°
2026-05-06 17:37 39.47287 20.89534 7605 ft 253 kts 62°
2026-05-06 17:37 39.47888 20.91682 7593 ft 255 kts 71°
2026-05-06 17:37 39.48491 20.93825 7299 ft 253 kts 66°
2026-05-06 17:38 39.49223 20.95889 6934 ft 251 kts 59°
2026-05-06 17:38 39.50416 20.97411 6763 ft 234 kts 24°
2026-05-06 17:38 39.51916 20.97818 6623 ft 213 kts 353°
2026-05-06 17:38 39.53240 20.97257 6486 ft 190 kts 324°
2026-05-06 17:39 39.54282 20.96319 6355 ft 175 kts 323°
2026-05-06 17:39 39.55247 20.95454 6216 ft 163 kts 323°
2026-05-06 17:39 39.56148 20.94657 6024 ft 151 kts 326°
2026-05-06 17:39 39.57055 20.94029 5786 ft 148 kts 334°
2026-05-06 17:40 39.58019 20.93528 5511 ft 150 kts 336°
2026-05-06 17:40 39.58928 20.92887 5175 ft 149 kts 322°
2026-05-06 17:40 39.59773 20.92108 4869 ft 148 kts 323°
2026-05-06 17:40 39.60599 20.91307 4608 ft 148 kts 321°
2026-05-06 17:41 39.61420 20.90500 4318 ft 148 kts 321°
2026-05-06 17:41 39.62243 20.89699 4005 ft 148 kts 321°
2026-05-06 17:41 39.63056 20.88911 3697 ft 148 kts 321°
2026-05-06 17:41 39.63876 20.88088 3331 ft 149 kts 320°
2026-05-06 17:42 39.64705 20.87273 2994 ft 148 kts 322°
2026-05-06 17:42 39.65529 20.86496 2695 ft 144 kts 321°
2026-05-06 17:42 39.66315 20.85699 2433 ft 143 kts 319°
2026-05-06 17:42 39.67094 20.84905 2224 ft 142 kts 319°
2026-05-06 17:43 39.67855 20.84090 2002 ft 141 kts 321°
2026-05-06 17:43 39.68627 20.83312 1784 ft 140 kts 322°
2026-05-06 17:43 39.69389 20.82539 1584 ft 135 kts 324°
2026-05-06 17:43 39.70030 20.81886 1567 ft 94 kts 322°
2026-05-06 17:44 39.70378 20.81530 1564 ft 36 kts 320°
2026-05-06 17:44 39.70544 20.81388 1565 ft 16 kts 340°
2026-05-06 17:44 39.70561 20.81354 1565 ft 4 kts 203°
2026-05-06 17:44 39.70502 20.81404 1565 ft 20 kts 138°
2026-05-06 17:45 39.70393 20.81518 1564 ft 20 kts 139°
2026-05-06 17:45 39.70281 20.81631 1564 ft 20 kts 142°
2026-05-06 17:45 39.70173 20.81740 1564 ft 19 kts 142°
2026-05-06 17:45 39.70077 20.81839 1566 ft 16 kts 141°
2026-05-06 17:46 39.69999 20.81921 1567 ft 13 kts 141°
2026-05-06 17:46 39.69922 20.81958 1567 ft 11 kts 198°
2026-05-06 17:46 39.69864 20.81893 1565 ft 11 kts 224°
2026-05-06 17:46 39.69797 20.81868 1565 ft 10 kts 165°
2026-05-06 17:47 39.69743 20.81920 1565 ft 11 kts 140°
2026-05-06 17:47 39.69645 20.82022 1565 ft 21 kts 141°
2026-05-06 17:47 39.69555 20.82066 1565 ft 11 kts 198°
2026-05-06 17:47 39.69518 20.82017 1565 ft 0 kts 230°